LEMUR-2-ZACHARY (42845 NORAD) Tracking and Keplerian Element Data

This shows tracking and keplerian element data for the satellite.

Feedback or suggestion? Click here.




ElementValue
Catalog42845
NameLEMUR-2-ZACHARY
Epoch Orbit3211
Epoch Day45.79873545
Epoch Year2018
RAAN312.8693
Inclination97.602
Eccentricity0.0011679
Argument of Perigee246.3498
Mean Anonmoly113.6495
Mean Motion14.91829554
Decay Rate5.61E-06
L11 42845U 17042W 18045.79873545 .00000561 00000-0 60923-4 0 9999
L22 42845 97.6020 312.8693 0011679 246.3498 113.6495 14.91829554 32115

Live tracking and technical data element details for LEMUR-2-ZACHARY (NORAD 42845). LEMUR-2-ZACHARY can be tracked NOW for your location showing map with azimuth and elevation plus other details from your city location.

Track the satellite on the map from your city or location and see movement details for azimuth, elevation, latitude, longitude, range, height, and movement on the map or in text.







IsCatalogInMostPopularTable: catalog: 42845, numindb: 163
Update: records affected: 1



GetName: 42845 LEMUR-2-ZACHARY

Hit Count: updated at: Fri, 16 Nov 2018 10:26:37 GMT